Regional Weather Roundup
Issued by NWS

Home | Current Version | Previous Version | Graphics & Text | Print | Product List | Glossary On
Versions: 1 2 3 4 5 6 7 8 9 10 11 12 13 14 15 16 17 18 19 20 21 22 23 24 25 26 27 28 29 30 31 32 33 34 35 36 37 38 39 40 41 42 43 44 45 46 47 48 49 50
000
ASUS45 KBOI 021210
RWRID
WEATHER ROUNDUP FOR IDAHO
NATIONAL WEATHER SERVICE BOISE ID
600 AM MDT TUE SEP 02 2014

NOTE: "FAIR" INDICATES FEW OR NO CLOUDS BELOW 12000 FEET
WITH NO SIGNIFICANT WEATHER AND/OR OBSTRUCTIONS TO VISIBILITY

IDZ012-014-021300-
SOUTHWEST IDAHO


CITY           SKY/WX    TMP DP  RH WIND       PRES   REMARKS
BOISE          CLEAR     56  35  45 SE9       29.95F
CALDWELL       CLEAR     48  32  53 E3        29.97S
MOUNTAIN HOME  CLEAR     49  37  63 E6        29.97S
$$

IDZ016-017-021300-
SOUTHCENTRAL IDAHO


CITY           SKY/WX    TMP DP  RH WIND       PRES   REMARKS
BURLEY         CLEAR     46  40  79 CALM      30.02S
JEROME         CLEAR     48  38  68 E6        30.01F
TWIN FALLS     CLEAR     53  38  56 S9        30.01F
$$

IDZ019>023-021300-
SOUTHEAST IDAHO


CITY           SKY/WX    TMP DP  RH WIND       PRES   REMARKS
IDAHO FALLS    CLEAR     47  37  68 CALM      30.06S
POCATELLO      CLEAR     41  38  89 N6        30.05S
REXBURG        CLEAR     41  38  89 CALM      30.06S
$$

IDZ006-010-011-018-031-032-021300-
CENTRAL IDAHO MOUNTAINS


CITY           SKY/WX    TMP DP  RH WIND       PRES   REMARKS
MCCALL         CLEAR     38  33  82 CALM      30.04F
HAILEY         PTCLDY    43  32  65 NW14      30.08F
STANLEY          N/A     28  26  92 S3        30.14F
SALMON         PTCLDY    43  39  87 CALM      30.03S
CHALLIS        CLEAR     45  36  70 N5        30.05S
$$

IDZ002-004-006-007-026-021300-
NORTHERN IDAHO


CITY           SKY/WX    TMP DP  RH WIND       PRES   REMARKS
LEWISTON       PTCLDY    56  43  61 CALM      29.90S
LOWELL           N/A     49  46  90 N3        30.00S
COEUR D`ALENE  MOCLDY    54  45  71 S9        29.89F
MULLAN PASS    MOCLDY    44  37  76 S8        29.99F
$$


USA.gov is the U.S. government's official web portal to all federal, state and local government web resources and services.